Weather History for KHYR - November, 2012

Change the Weather History Date:

Tuesday, November 6, 2012

  Actual Average Record
Temperature  
Mean Temperature 36 °F -  
Max Temperature 39 °F 45 °F 64 °F (2001)
Min Temperature 33 °F 31 °F 10 °F (2003)
Degree Days  
Heating Degree Days 29    
Moisture  
Dew Point 33 °F    
Average Humidity 91    
Maximum Humidity 100    
Minimum Humidity 62    
Precipitation  
Precipitation 0.23 in - - ()
Sea Level Pressure  
Sea Level Pressure 29.82 in    
Wind  
Wind Speed 4 mph (South)    
Max Wind Speed 9 mph    
Max Gust Speed -    
Visibility 4 miles    
Events Fog , Rain , Snow    
Averages and records for this station are not official NWS values.
T = Trace of Precipitation, MM = Missing Value Source: NWS Daily Summary

Daily Weather History Graph

Daily Weather History Graph

Search for Another Location

Airport or City:

Trip Planner

Search our weather history database for the weather conditions in past years. The results will help you decide how hot, cold, wet, or windy it might be!

Date:

Astronomy

Nov. 06, 2012 Rise Set
Actual Time 6:54 AM CST 4:44 PM CST
Civil Twilight 6:22 AM CST 5:15 PM CST
Nautical Twilight 5:46 AM CST 5:51 PM CST
Astronomical Twilight 5:11 AM CST 6:26 PM CST
Moon 11:27 PM CST (11/6) 12:43 PM CST (11/6)
Length of Visible Light 10h 53m
Length of Day
9h 49m
Waning Gibbous, 53% of the Moon is Illuminated
Nov 6
Waning Gibbous
Nov 6
Last Quarter
Nov 13
New
Nov 20
First Quarter
Nov 28
Full

Hourly Weather History & Observations

Time (CST) Temp. Windchill Dew Point Humidity Pressure Visibility Wind Dir Wind Speed Gust Speed Precip Events Conditions
12:53 AM 39.0 °F 33.4 °F 27.0 °F 62% 29.95 in 10.0 mi South 8.1 mph - N/A   Overcast
1:15 AM 39.2 °F 33.0 °F 28.4 °F 65% 29.90 in 10.0 mi SSE 9.2 mph - N/A   Overcast
1:53 AM 39.0 °F 34.0 °F 28.0 °F 65% 29.92 in 10.0 mi SSE 6.9 mph - N/A   Overcast
2:53 AM 39.0 °F 32.8 °F 28.9 °F 67% 29.89 in 10.0 mi SSE 9.2 mph - N/A   Overcast
3:53 AM 37.0 °F 31.6 °F 33.1 °F 86% 29.86 in 5.0 mi South 6.9 mph - 0.00 in Rain Light Rain
4:27 AM 35.6 °F 29.9 °F 32.0 °F 87% 29.81 in 4.0 mi SSE 6.9 mph - 0.03 in Rain Light Rain
4:53 AM 34.0 °F 28.8 °F 32.0 °F 92% 29.84 in 4.0 mi South 5.8 mph - 0.04 in Rain Light Rain
5:46 AM 33.8 °F 27.0 °F 32.0 °F 93% 29.78 in 2.5 mi South 8.1 mph - 0.02 in Snow Light Snow
5:53 AM 34.0 °F 27.2 °F 32.0 °F 92% 29.81 in 2.0 mi South 8.1 mph - 0.02 in Snow Light Snow
6:13 AM 33.8 °F 27.7 °F 32.0 °F 93% 29.77 in 1.8 mi South 6.9 mph - 0.01 in Snow Light Snow
6:53 AM 33.1 °F 26.9 °F 32.0 °F 96% 29.80 in 1.5 mi South 6.9 mph - 0.03 in Snow Light Snow
7:16 AM 33.8 °F 28.6 °F 32.0 °F 93% 29.76 in 2.5 mi South 5.8 mph - 0.01 in Snow Light Snow
7:23 AM 33.8 °F 30.8 °F 32.0 °F 93% 29.76 in 3.0 mi South 3.5 mph - 0.01 in Snow Light Snow
7:32 AM 33.8 °F 28.6 °F 32.0 °F 93% 29.76 in 1.8 mi South 5.8 mph - 0.02 in Snow Light Snow
7:53 AM 34.0 °F 28.0 °F 32.0 °F 92% 29.80 in 2.0 mi South 6.9 mph - 0.02 in Snow Light Snow
8:08 AM 33.8 °F 30.8 °F 32.0 °F 93% 29.76 in 1.8 mi Variable 3.5 mph - 0.01 in Snow Light Snow
8:47 AM 33.8 °F 29.6 °F 32.0 °F 93% 29.75 in 0.8 mi South 4.6 mph - 0.03 in Snow Light Snow
8:48 AM 33.1 °F 28.7 °F 32.0 °F 96% 29.79 in 0.8 mi South 4.6 mph - 0.03 in Snow Light Snow
9:04 AM 33.8 °F 29.6 °F 32.0 °F 93% 29.75 in 1.0 mi South 4.6 mph - 0.01 in Snow Light Snow
9:16 AM 33.8 °F 27.7 °F 30.2 °F 87% 29.75 in 1.2 mi South 6.9 mph - 0.01 in Snow Light Snow
9:53 AM 34.0 °F 28.8 °F 32.0 °F 92% 29.79 in 1.0 mi South 5.8 mph - 0.03 in Snow Light Snow
10:14 AM 33.8 °F 29.6 °F 32.0 °F 93% 29.74 in 0.8 mi South 4.6 mph - 0.01 in Snow Light Snow
10:22 AM 33.8 °F 29.6 °F 32.0 °F 93% 29.74 in 1.2 mi South 4.6 mph - 0.02 in Snow Light Snow
10:43 AM 33.8 °F 29.6 °F 32.0 °F 93% 29.74 in 2.5 mi South 4.6 mph - 0.02 in Snow Light Snow
10:53 AM 34.0 °F 29.8 °F 32.0 °F 92% 29.78 in 4.0 mi South 4.6 mph - 0.02 in Snow Light Snow
11:53 AM 35.1 °F 32.2 °F 33.1 °F 92% 29.77 in 6.0 mi South 3.5 mph - 0.00 in Rain Light Rain
12:53 PM 36.0 °F 33.3 °F 34.0 °F 93% 29.77 in 7.0 mi Variable 3.5 mph - 0.00 in   Overcast
1:44 PM 37.4 °F - 35.6 °F 93% 29.73 in 1.8 mi Calm Calm - 0.00 in Rain Light Rain
1:53 PM 37.0 °F - 35.1 °F 93% 29.77 in 1.5 mi Calm Calm - 0.01 in Rain Light Rain
2:13 PM 37.4 °F 34.9 °F 35.6 °F 93% 29.74 in 2.5 mi South 3.5 mph - 0.00 in Rain Light Rain
2:33 PM 37.4 °F - 35.6 °F 93% 29.75 in 1.5 mi Calm Calm - 0.01 in Rain Light Rain
2:43 PM 37.4 °F - 35.6 °F 93% 29.75 in 3.0 mi Calm Calm - 0.01 in Rain Light Rain
2:53 PM 37.0 °F - 36.0 °F 96% 29.79 in 5.0 mi Calm Calm - 0.01 in Rain Light Rain
3:31 PM 37.4 °F - 35.6 °F 93% 29.77 in 7.0 mi Calm Calm - 0.00 in Rain Light Rain
3:53 PM 37.9 °F - 36.0 °F 93% 29.81 in 7.0 mi Calm Calm - 0.00 in Rain Light Rain
3:58 PM 37.4 °F - 35.6 °F 93% 29.78 in 10.0 mi Calm Calm - 0.00 in   Overcast
4:27 PM 37.4 °F - 35.6 °F 93% 29.79 in 10.0 mi Calm Calm - 0.00 in   Overcast
4:53 PM 37.0 °F - 36.0 °F 96% 29.84 in 9.0 mi Calm Calm - 0.00 in   Overcast
5:18 PM 37.4 °F - 35.6 °F 93% 29.81 in 2.5 mi Calm Calm - N/A   Overcast
5:22 PM 37.4 °F - 35.6 °F 93% 29.81 in 3.0 mi Calm Calm - N/A   Overcast
5:46 PM 37.4 °F - 35.6 °F 93% 29.82 in 4.0 mi Calm Calm - 0.01 in Rain Light Rain
5:53 PM 37.0 °F - 35.1 °F 93% 29.86 in 3.0 mi Calm Calm - 0.02 in Rain Light Rain
6:11 PM 35.6 °F - 35.6 °F 100% 29.82 in 6.0 mi Calm Calm - 0.00 in   Overcast
6:29 PM 35.6 °F - 35.6 °F 100% 29.83 in 4.0 mi Calm Calm - 0.00 in   Overcast
6:37 PM 35.6 °F - 33.8 °F 93% 29.83 in 3.0 mi Calm Calm - 0.00 in   Overcast
6:39 PM 35.6 °F - 33.8 °F 93% 29.83 in 2.0 mi Calm Calm - 0.00 in   Overcast
6:46 PM 35.6 °F - 33.8 °F 93% 29.83 in 1.2 mi Calm Calm - 0.00 in   Overcast
6:53 PM 36.0 °F - 34.0 °F 93% 29.88 in 2.0 mi Calm Calm - 0.00 in   Overcast
7:26 PM 35.6 °F - 33.8 °F 93% 29.84 in 1.0 mi Calm Calm - N/A   Overcast
7:36 PM 35.6 °F - 33.8 °F 93% 29.85 in 0.5 mi Calm Calm - N/A Fog Fog
7:44 PM 35.6 °F - 33.8 °F 93% 29.85 in 0.5 mi Calm Calm - N/A Fog Fog
7:47 PM 35.6 °F - 33.8 °F 93% 29.85 in 0.5 mi Calm Calm - N/A Fog Fog
7:53 PM 35.1 °F - 34.0 °F 96% 29.89 in 0.8 mi Calm Calm - N/A   Overcast
7:56 PM 35.6 °F - 33.8 °F 93% 29.85 in 1.0 mi Calm Calm - N/A   Overcast
8:02 PM 35.6 °F - 33.8 °F 93% 29.85 in 2.0 mi Calm Calm - N/A   Overcast
8:11 PM 35.6 °F - 33.8 °F 93% 29.86 in 4.0 mi Calm Calm - N/A   Overcast
8:30 PM 35.6 °F - 33.8 °F 93% 29.86 in 2.5 mi Calm Calm - N/A   Overcast
8:41 PM 35.6 °F - 33.8 °F 93% 29.86 in 1.8 mi Calm Calm - N/A   Overcast
8:53 PM 36.0 °F - 34.0 °F 93% 29.91 in 2.5 mi Calm Calm - N/A   Overcast
9:07 PM 35.6 °F - 33.8 °F 93% 29.87 in 3.0 mi Calm Calm - N/A   Overcast
9:29 PM 35.6 °F - 33.8 °F 93% 29.88 in 4.0 mi Calm Calm - N/A   Overcast
9:44 PM 35.6 °F - 33.8 °F 93% 29.88 in 2.5 mi Calm Calm - N/A   Overcast
9:53 PM 35.1 °F - 34.0 °F 96% 29.93 in 3.0 mi Calm Calm - N/A   Overcast
10:19 PM 35.6 °F - 33.8 °F 93% 29.89 in 2.5 mi Calm Calm - N/A   Overcast
10:22 PM 35.6 °F - 33.8 °F 93% 29.89 in 3.0 mi Calm Calm - N/A   Overcast
10:38 PM 35.6 °F - 33.8 °F 93% 29.90 in 4.0 mi Calm Calm - N/A   Overcast
10:53 PM 35.1 °F - 34.0 °F 96% 29.94 in 5.0 mi Calm Calm - N/A   Overcast
11:53 PM 36.0 °F - 34.0 °F 93% 29.96 in 10.0 mi Calm Calm - N/A   Overcast